Location: Bothwell
(42.3833°S, 147.0000°E)
Time: 21:01:24
(UTC+11:00)

AO-85 - Pass Details

Date: 03 October 2022
Orbit: 513 x 757 km, 64.8° (Epoch: 24 November)

Event Time Altitude Azimuth Distance (km) Brightness Sun altitude
Rises 04:08:06 0° 205° (SSW) 3,077 ? -27.5°
Reaches altitude 10° 04:10:58 10° 188° (S) 2,198 ? -27.0°
Maximum altitude 04:14:44 21° 139° (SE) 1,630 ? -26.5°
Drops below altitude 10° 04:18:38 10° 91° (E) 2,271 ? -25.8°
Sets 04:21:38 0° 75° (ENE) 3,209 ? -25.4°
